Weather History for Holdrege, NE

Change the Weather History Date:

Sunday, October 21, 2012

  Actual Average Record
Temperature  
Mean Temperature 62 °F -  
Max Temperature 78 °F 63 °F 84 °F (2003)
Min Temperature 45 °F 37 °F 20 °F (1987)
Degree Days  
Heating Degree Days 4    
Growing Degree Days 12 (Base 50)    
Moisture  
Dew Point 40 °F    
Average Humidity 49    
Maximum Humidity 79    
Minimum Humidity 25    
Precipitation  
Precipitation 0.00 in - - ()
Sea Level Pressure  
Sea Level Pressure 29.72 in    
Wind  
Wind Speed 8 mph (East)    
Max Wind Speed 18 mph    
Max Gust Speed 23 mph    
Visibility 9 miles    
Events      
Averages and records for this station are not official NWS values.
T = Trace of Precipitation, MM = Missing Value Source: NWS Daily Summary

Daily Weather History Graph

Daily Weather History Graph

Search for Another Location

Airport:

Trip Planner

Search our weather history database for the weather conditions in past years. The results will help you decide how hot, cold, wet, or windy it might be!

Date:

Astronomy

Oct. 21, 2012 Rise Set
Actual Time 7:55 AM CDT 6:47 PM CDT
Civil Twilight 7:27 AM CDT 7:15 PM CDT
Nautical Twilight 6:55 AM CDT 7:47 PM CDT
Astronomical Twilight 6:24 AM CDT 8:18 PM CDT
Moon 2:17 PM CDT (10/21) No Moon Set
Length of Visible Light 11h 47m
Length of Day
10h 52m
Waxing Crescent, 45% of the Moon is Illuminated
Oct 21
Waxing Crescent
Oct 21
First Quarter
Oct 29
Full
Nov 6
Last Quarter
Nov 13
New

Hourly Weather History & Observations

Time (CDT) Temp. Dew Point Humidity Pressure Visibility Wind Dir Wind Speed Gust Speed Precip Events Conditions
12:15 AM 52.9 °F 35.2 °F 51% 29.67 in 10.0 mi SSE 9.2 mph - N/A   Clear
12:35 AM 54.5 °F 35.1 °F 48% 29.66 in 10.0 mi South 5.8 mph - N/A   Clear
12:55 AM 54.1 °F 35.1 °F 49% 29.66 in 10.0 mi South 8.1 mph - N/A   Clear
1:15 AM 54.5 °F 34.7 °F 47% 29.66 in 10.0 mi SSW 6.9 mph - N/A   Clear
1:35 AM 54.9 °F 34.7 °F 47% 29.66 in 10.0 mi South 8.1 mph - N/A   Clear
1:55 AM 53.8 °F 34.7 °F 48% 29.66 in 10.0 mi SSW 9.2 mph - N/A   Clear
2:15 AM 53.6 °F 34.9 °F 49% 29.66 in 10.0 mi SSW 8.1 mph - N/A   Clear
2:35 AM 53.4 °F 34.9 °F 49% 29.67 in 10.0 mi SSW 10.4 mph - N/A   Clear
2:55 AM 55.0 °F 35.1 °F 47% 29.67 in 10.0 mi South 9.2 mph - N/A   Clear
3:15 AM 56.1 °F 36.0 °F 47% 29.67 in 10.0 mi South 6.9 mph - N/A   Clear
3:35 AM 52.2 °F 35.6 °F 53% 29.67 in 10.0 mi South 9.2 mph - N/A   Clear
3:55 AM 50.2 °F 35.6 °F 57% 29.67 in 10.0 mi South 9.2 mph - N/A   Clear
4:15 AM 50.7 °F 36.9 °F 59% 29.67 in 10.0 mi South 9.2 mph - N/A   Clear
4:35 AM 49.5 °F 36.3 °F 61% 29.67 in 10.0 mi South 5.8 mph - N/A   Clear
4:55 AM 48.9 °F 36.7 °F 63% 29.67 in 10.0 mi SSW 6.9 mph - N/A   Clear
5:15 AM 50.9 °F 37.0 °F 59% 29.67 in 10.0 mi South 9.2 mph - N/A   Clear
5:35 AM 52.9 °F 38.8 °F 59% 29.67 in 10.0 mi South 10.4 mph - N/A   Clear
5:55 AM 51.4 °F 38.7 °F 62% 29.67 in 10.0 mi SSW 6.9 mph - N/A   Clear
6:15 AM 53.6 °F 39.9 °F 60% 29.67 in 10.0 mi South 5.8 mph - N/A   Clear
6:35 AM 46.9 °F 37.4 °F 69% 29.68 in 10.0 mi South 6.9 mph - N/A   Clear
6:55 AM 49.5 °F 38.8 °F 67% 29.68 in 10.0 mi SSW 8.1 mph - N/A   Clear
7:15 AM 48.2 °F 38.7 °F 70% 29.69 in 10.0 mi SSW 9.2 mph - N/A   Clear
7:35 AM 49.3 °F 39.9 °F 70% 29.69 in 10.0 mi SW 3.5 mph - N/A   Clear
7:55 AM 51.8 °F 41.7 °F 68% 29.69 in 10.0 mi South 4.6 mph - N/A   Clear
8:15 AM 46.9 °F 38.7 °F 73% 29.70 in 10.0 mi SSE 4.6 mph - N/A   Clear
8:35 AM 45.9 °F 39.4 °F 78% 29.71 in 10.0 mi Calm Calm - N/A   Clear
8:55 AM 47.1 °F 40.8 °F 79% 29.71 in 10.0 mi ESE 3.5 mph - N/A   Clear
9:15 AM 50.5 °F 42.3 °F 73% 29.72 in 10.0 mi East 3.5 mph - N/A   Clear
9:35 AM 53.2 °F 43.0 °F 68% 29.74 in 10.0 mi NNE 4.6 mph - N/A   Clear
9:55 AM 54.7 °F 42.6 °F 64% 29.74 in 10.0 mi NE 4.6 mph - N/A   Clear
10:15 AM 57.0 °F 43.9 °F 61% 29.74 in 10.0 mi ENE 4.6 mph - N/A   Clear
10:35 AM 59.7 °F 44.8 °F 58% 29.74 in 10.0 mi Calm Calm - N/A   Clear
10:55 AM 62.1 °F 45.0 °F 53% 29.74 in 10.0 mi Calm Calm - N/A   Clear
11:15 AM 64.2 °F 45.1 °F 50% 29.74 in 10.0 mi East 3.5 mph - N/A   Clear
11:35 AM 66.7 °F 45.1 °F 46% 29.74 in 10.0 mi East 4.6 mph - N/A   Clear
12:15 PM 70.2 °F 45.1 °F 41% 29.75 in 10.0 mi East 4.6 mph - N/A   Clear
12:35 PM 71.8 °F 44.1 °F 37% 29.74 in 10.0 mi ENE 4.6 mph - N/A   Clear
12:55 PM 74.3 °F 43.3 °F 33% 29.74 in 10.0 mi East 5.8 mph - N/A   Clear
1:15 PM 74.8 °F 42.1 °F 31% 29.73 in 0.8 mi SE 5.8 mph - N/A   Haze
1:35 PM 76.1 °F 43.0 °F 31% 29.72 in 10.0 mi East 6.9 mph - N/A   Clear
1:55 PM 76.3 °F 43.3 °F 31% 29.72 in 10.0 mi East 8.1 mph - N/A   Clear
2:15 PM 76.5 °F 44.1 °F 31% 29.72 in 10.0 mi East 6.9 mph - N/A   Clear
2:35 PM 76.8 °F 43.9 °F 31% 29.71 in 10.0 mi ENE 4.6 mph - N/A   Clear
2:55 PM 77.7 °F 43.5 °F 30% 29.70 in 5.0 mi East 8.1 mph - N/A   Haze
3:15 PM 77.9 °F 43.7 °F 30% 29.70 in 10.0 mi ENE 6.9 mph - N/A   Clear
3:35 PM 78.4 °F 43.5 °F 29% 29.69 in 10.0 mi NE 8.1 mph - N/A   Clear
3:55 PM 78.4 °F 43.7 °F 29% 29.70 in 10.0 mi NE 10.4 mph 16.1 mph N/A   Clear
4:15 PM 78.4 °F 43.7 °F 29% 29.70 in 10.0 mi ENE 12.7 mph 16.1 mph N/A   Clear
4:35 PM 77.9 °F 39.4 °F 25% 29.70 in 10.0 mi NNE 17.3 mph - N/A   Clear
4:55 PM 77.9 °F 40.8 °F 27% 29.71 in 4.0 mi NNE 15.0 mph - N/A   Haze
5:15 PM 77.0 °F 41.0 °F 28% 29.71 in 4.0 mi NNE 15.0 mph - N/A   Haze
5:35 PM 76.5 °F 41.9 °F 29% 29.71 in 5.0 mi NNE 12.7 mph - N/A   Haze
5:55 PM 75.0 °F 40.8 °F 29% 29.72 in 7.0 mi NNE 12.7 mph - N/A   Clear
6:15 PM 72.3 °F 41.0 °F 32% 29.72 in 5.0 mi NNE 12.7 mph - N/A   Haze
6:35 PM 70.9 °F 41.0 °F 34% 29.73 in 5.0 mi NNE 11.5 mph - N/A   Haze
6:55 PM 67.6 °F 41.4 °F 38% 29.73 in 7.0 mi NNE 10.4 mph - N/A   Clear
7:15 PM 65.5 °F 41.5 °F 42% 29.74 in 7.0 mi NNE 10.4 mph - N/A   Clear
7:35 PM 65.7 °F 42.4 °F 43% 29.75 in 5.0 mi ENE 10.4 mph - N/A   Haze
7:55 PM 67.5 °F 42.1 °F 40% 29.76 in 10.0 mi NE 9.2 mph - N/A   Scattered Clouds
8:15 PM 63.3 °F 42.3 °F 46% 29.77 in 1.2 mi ENE 5.8 mph - N/A   Haze
8:35 PM 61.3 °F 42.1 °F 49% 29.78 in 10.0 mi NE 9.2 mph - N/A   Scattered Clouds
8:55 PM 60.1 °F 39.7 °F 47% 29.79 in 10.0 mi NNE 12.7 mph - N/A   Clear
9:15 PM 60.8 °F 38.7 °F 44% 29.80 in 10.0 mi North 15.0 mph - N/A   Scattered Clouds
9:35 PM 58.6 °F 39.2 °F 48% 29.79 in 10.0 mi North 13.8 mph - N/A   Clear
9:55 PM 58.6 °F 40.1 °F 50% 29.79 in 10.0 mi NNE 15.0 mph - N/A   Clear
10:15 PM 57.7 °F 40.1 °F 52% 29.79 in 10.0 mi North 15.0 mph - N/A   Clear
10:35 PM 58.1 °F 40.6 °F 52% 29.80 in 10.0 mi NNE 16.1 mph - N/A   Clear
10:55 PM 57.4 °F 40.6 °F 54% 29.80 in 10.0 mi NNE 18.4 mph 23.0 mph N/A   Clear
11:15 PM 56.7 °F 41.0 °F 56% 29.81 in 10.0 mi NNE 16.1 mph - N/A   Clear
11:35 PM 55.8 °F 41.7 °F 59% 29.81 in 10.0 mi NNE 18.4 mph - N/A   Clear
11:55 PM 54.7 °F 41.9 °F 62% 29.81 in 10.0 mi NNE 16.1 mph - N/A   Clear